User: anonymous   Login
Location: Fort Wayne
(41.1310°N, 85.1290°W)
Time: 19:33:33
(UTC-05:00)
Language:

Cosmos 2082 - Orbit

View from above orbital plane
View from above orbital plane
View from above satellite
View from above satellite

Ground track
Ground track

The orbit data is extracted from the following two-line orbital elements,

1 20624U 90046A   15059.73752671 -.00000203  00000-0 -81519-4 0  9996
2 20624 071.0415 171.4787 0017010 233.9741 125.9805 14.14136302278515
Epoch (UTC): 28 February 2015 17:42:02
Eccentricity: 0.0017010
inclination: 71.0415°
perigee height: 833 km
apogee height: 857 km
right ascension of ascending node: 171.4787°
argument of perigee: 233.9741°
revolutions per day: 14.14136302
mean anomaly at epoch: 125.9805°
orbit number at epoch: 27851

The dashed part of the orbit path shows where the satellite is in the earth's shadow,  

DLR